Regional Weather Roundup
Issued by NWS

Home | Current Version | Previous Version | Text Only | Print | Product List | Glossary On
Versions: 1 2 3 4 5 6 7 8 9 10 11 12 13 14 15 16 17 18 19 20 21 22 23 24 25 26 27 28 29 30 31 32 33 34 35 36 37 38 39 40 41 42 43 44 45 46 47 48 49 50
000
ASUS44 KFWD 282015
RWRTX
NORTH TEXAS HOURLY WEATHER ROUNDUP
NATIONAL WEATHER SERVICE FORT WORTH TX
300 PM CDT WED JUN 28 2017

NOTE: "FAIR" INDICATES FEW OR NO CLOUDS BELOW 12,000 FEET WITH NO
SIGNIFICANT WEATHER AND/OR OBSTRUCTIONS TO VISIBILITY.

TXZ118-119-282100-
DALLAS/FORT WORTH METROPLEX

CITY           SKY/WX    TMP DP  RH WIND       PRES   REMARKS
DFW AIRPORT    PTSUNNY   89  69  51 SE15      29.90F HX  93
DALLAS LOVE    PTSUNNY   89  69  51 S15       29.91F HX  93
FTW MEACHAM    MOSUNNY   89  71  55 SE17      29.90F HX  95
DAL-EXECUTIVE  MOSUNNY   86  71  60 SE8       29.91F HX  91
FTW-ALLIANCE   MOSUNNY   87  70  56 S15       29.90F HX  92
FTW-NAS-JRB      N/A    N/A N/A N/A MISG      29.90F
FTW-SPINKS     PTSUNNY   90  70  51 SE12G20   29.92F HX  95
ARLINGTON      MOSUNNY   88  70  55 SE15G23   29.91F HX  93
GRAND PRAIRIE  MOSUNNY   88  66  48 SE10G17   29.92F HX  90
ADDISON        PTSUNNY   86  68  54 MISG      29.93F
MESQUITE       PTSUNNY   88  68  51 SE9       29.93F HX  91
LANCASTER      MOSUNNY   87  68  52 SE10      29.93F HX  91
$$

TXZ091>094-102>105-117-120-121-131>134-282100-
NORTH CENTRAL TEXAS

CITY           SKY/WX    TMP DP  RH WIND       PRES   REMARKS
SHRMAN/DENISON SUNNY     88  69  52 S15G21    29.93F HX  92
GAINESVILLE    SUNNY     86  68  55 SE18      29.92F
BOWIE          MOSUNNY   86  69  56 SE12G21   29.90S HX  90
BRIDGEPORT     MOSUNNY   87  67  51 S17       29.91F HX  90
DECATUR        MOSUNNY   86  68  54 S12G17    29.91F HX  90
DENTON         MOSUNNY   88  71  57 S17       29.90F HX  94
MCKINNEY       MOSUNNY   87  72  60 S12       29.92F HX  93
BONHAM         MOSUNNY   88  70  55 SE14G20   29.93F HX  92
GREENVILLE     MOSUNNY   91  68  46 S12       29.93F HX  95
ROCKWALL       MOSUNNY   88  70  55 MISG      29.93F HX  93
TERRELL        PTSUNNY   88  70  55 S12G20    29.93F HX  93
WAXAHACHIE     MOSUNNY   88  70  54 SE9G20    29.93F HX  93
CLEBURNE       MOSUNNY   86  72  62 SE13      29.93F HX  92
GRANBURY       PTSUNNY   88  69  53 SE12G18   29.92S HX  91
$$

TXZ083>090-098>101-113>116-127>130-139>142-154-155-282100-
WESTERN NORTH TEXAS

CITY           SKY/WX    TMP DP  RH WIND       PRES   REMARKS
WICHITA FALLS  MOSUNNY   90  68  48 S24G32    29.84F HX  94
WF-KICKAPOO    SUNNY     91  68  46 SE21G26   29.87F HX  95
VERNON         SUNNY     94  57  29 S21G28    29.83F HX  92
ABILENE        SUNNY     89  64  43 S18G28    29.88F HX  90
ABILENE-DYESS  MOSUNNY   91  65  42 S24       29.86F HX  93
GRAHAM         SUNNY     89  67  49 SE15G22   29.86F HX  91
BRECKENRIDGE   MOSUNNY   88  66  47 SE21      29.88F HX  90
CISCO          SUNNY     86  68  54 SE18      29.92F
EASTLAND       MOSUNNY   86  69  56 SE18G25   29.91F
RANGER         MOSUNNY   84  69  58 S14G23    29.93S
MINERAL WELLS  MOSUNNY   88  67  49 SE21G26   29.89F HX  91
STEPHENVILLE   PTSUNNY   87  67  52 S9G21     29.95F
COMANCHE       MOSUNNY   86  69  58 S12G18    29.93F HX  90
BROWNWOOD      SUNNY     84  66  54 S14G20    29.92F
COLEMAN        MOSUNNY   92  62  37 SE13G24   29.91F HX  92
$$

TXZ143>147-156>162-174-175-282100-
CENTRAL TEXAS

CITY           SKY/WX    TMP DP  RH WIND       PRES   REMARKS
WACO           MOSUNNY   89  70  53 S12       29.91F HX  94
WACO-MCGREGOR  MOSUNNY   89  70  53 SE14      29.91F HX  94
HILLSBORO      MOSUNNY   88  71  56 SE10G17   29.92F HX  94
CORSICANA      MOSUNNY   89  70  53 SE7       29.93F HX  94
MEXIA          PTSUNNY   89  69  51 SE13G20   29.91F HX  93
HEARNE         MOSUNNY   87  72  61 E6        29.91F HAZE    HX  94
CAMERON        MOSUNNY   88  69  52 E9        29.90F HX  93
TEMPLE         PTSUNNY   89  70  53 E16       29.92F HX  94
KILLEEN        PTSUNNY   88  69  53 E12       29.91F HX  92
KILLEEN-SKYLRK PTSUNNY   87  71  58 E12       29.92  HX  93
FORT HOOD      MOSUNNY   88  68  52 SE12      29.89F HX  91
HAMILTON       PTSUNNY   87  67  51 SE10G17   29.94F HX  90
LAMPASAS       PTSUNNY   88  73  60 SE8       29.92F HX  94
$$

TXZ095>097-106>112-122>126-135>138-148>153-164>167-282100-
EAST TEXAS

CITY           SKY/WX    TMP DP  RH WIND       PRES   REMARKS
PARIS            N/A     88  72  58 SE15      29.95F HX  94
SULPHUR SPRNGS PTSUNNY   87  68  53 SE8       29.96S HX  91
MOUNT PLEASANT SUNNY     87  67  52 SE8       29.95F
GILMER         PTSUNNY   87  68  52 SE8       29.94F HX  91
MINEOLA        MOSUNNY   88  70  55 SE9G16    29.93F HX  92
TYLER          MOSUNNY   89  69  51 SE13      29.94S HX  93
LONGVIEW       MOSUNNY   89  71  55 SE9G17    29.93F HX  95
MARSHALL       PTSUNNY   85  67  55 SE5       29.96F
ATHENS         PTSUNNY   86  68  54 SE10      29.92F
PALESTINE      MOSUNNY   88  71  56 NE10      29.93F HX  94
JACKSONVILLE   MOSUNNY   87  69  55 SE3       29.96F HX  91
HENDERSON      MOSUNNY   88  70  54 E8        29.94F HX  92
CENTER         PTCLDY    91  71  53 E6        29.95F HX  97
NACOGDOCHES    MOSUNNY   88  72  58 E10       29.91F HX  94
LUFKIN         PTSUNNY   86  70  58 E9        29.91F HX  90
$$

SUPPLEMENTAL OBSERVATIONS (NWS FORT WORTH AREA)

CITY           SKY/WX    TMP DP  RH WIND       PRES   REMARKS
DENISON DAM      N/A     86  68  54 SE9         N/A
CADDO GRASSLND   N/A     88  66  48 S9          N/A  HX  90
LBJ GRASSLAND    N/A     88  68  51 SE13G26     N/A  HX  91
POSSUM KINGDOM   N/A     88  66  48 SE16G22     N/A  HX  90
GRANBURY         N/A     88  68  51 SE16        N/A  HX  91
MCGREGOR         N/A     88  68  51 SE10        N/A  HX  91
TEMPLE           N/A     88  68  51 E10         N/A  HX  91
ATHENS           N/A     88  70  55 SE10        N/A  HX  92
$$

SUPPLEMENTAL OBSERVATIONS (NWS NORMAN AREA)

CITY           SKY/WX    TMP DP  RH WIND       PRES   REMARKS
GOODLETT         N/A     96  56  26 SE25G33   29.79F HX  95
ODELL            N/A     92  65  39 SE20      29.83F HX  94
CROWELL          N/A     96  63  34 S22       29.82F HX  97
KNOX CITY        N/A     96  57  26 S21G29    29.83F HX  95
SEYMOUR          N/A     91  65  41 SE21G26   29.84F HX  93
MILLERS CREEK    N/A     90  68  48 SE16G26     N/A  HX  93
$$

SUPPLEMENTAL OBSERVATIONS (NWS SAN ANGELO AREA)

CITY           SKY/WX    TMP DP  RH WIND       PRES   REMARKS
WEINERT          N/A     94  65  37 S17       29.85R HX  96
HASKELL          N/A     91  60  35 SE16G25   29.84F HX  91
THROCKMORTON     N/A     88  70  54 S14       29.87F HX  93
STAMFORD         N/A     94  66  39 S22       29.85F HX  97
CLYDE            N/A     88  66  48 S20G26    29.91F HX  91
HAMBY            N/A    N/A N/A N/A S17G26      N/A
IVIE RESERVOIR   N/A     90  63  40 SE16G23     N/A  HX  90
COLORADO BEND    N/A     86  68  54 S6          N/A
$$

SUPPLEMENTAL OBSERVATIONS (NWS SHREVEPORT AREA)

CITY           SKY/WX    TMP DP  RH WIND       PRES   REMARKS
TEXARKANA        N/A     90  66  45 SE6         N/A  HX  92
LINDEN           N/A     90  66  45 SE5G13      N/A  HX  92
LUFKIN           N/A     88  70  55 MISG        N/A  HX  92
N SABINE NF      N/A     91  73  55 MISG        N/A  HX 100
$$

SUPPLEMENTAL OBSERVATIONS ARE A COLLECTION OF AUTOMATED INSTRUMENTS
THAT ARE MAINTAINED BY A VARIETY OF FEDERAL AND STATE AGENCIES.
CERTAIN ELEMENTS...SUCH AS HUMIDITY VALUES AND SUSTAINED WIND
SPEEDS...MAY BE APPROXIMATED.




USA.gov is the U.S. government's official web portal to all federal, state and local government web resources and services.